Weather in Teofilo Otoni

Brazil     17°51′58″S   41°30′22″W
temp.,
°C
wind,
m/s
gust,
m/s
humid.,
%
clouds,
%
prec.,
mm/h
press.,
hPa
HPBL,
m
7 march, sun
sun700:00+21w1194100 0.1 101223
03:00+20w119584 0.1 101223
06:00+20nw119588 0.1 101223
09:00+27wnw127578 0.2 1014357
12:00+33wnw025316 1.6 10121349
15:00+30ssw125925 1.9 10101283
18:00+24ssw1281100 0.6 101024
21:00+21ene2896100 2.8 1013308
8 march, mon
mon800:00+21wsw119692 1.4 101429
03:00+21wnw119796 1.9 101226
06:00+20nw019741 0.0 101323
09:00+25e128324 0.7 1014399
12:00+30ene226039 3.8 10121029
15:00+29nne235845 4.6 10091128
18:00+24sse0186100 2.5 101024
21:00+21ssw2296100 4.1 101385
9 march, tue
tue900:00+20wsw1198100 2.6 101229
03:00+20w1199100 9.9 101237
06:00+20e12100100 10.8 1012122
09:00+21ne1297100 11.6 1012224
12:00+27ne237699 0.3 1011665
15:00+26ne1185100 3.7 1008308
18:00+23ene2293100 5.1 100959
21:00+21ene1297100 7.6 101137
10 march, wed
wed1000:00+21ne2698100 0.2 1011288
03:00+20ne14100100 0.2 1010221
06:00+20n1199100 0.1 101126
09:00+23nnw3787100 0.3 1013679
12:00+22wnw2993100 2.3 1012717
15:00+26nnw3685100 5.0 1010795
18:00+22nw229198 1.3 101088
21:00+20n119199 1.3 101223
11 march, thu
thu1100:00+20w1192100 0.0 101223
03:00+19wnw119299 0.0 101123
06:00+18wnw119198 0.0 101323
09:00+25nnw127081 0.0 1014353
12:00+28wnw236121 0.1 10121053
15:00+30ese125913 0.3 10101524
18:00+23ese119083 3.1 101124
21:00+22n009191 3.2 101323